Flag for Azerbaijan Weather past 2 weeks in Ganja, Azerbaijan

Now
73 °F

Scattered clouds.


Feels Like: 77 °F
Forecast: 51 / 60 °F
Wind: 20 mph from Northwest

Location: Gyanca Airport


UV Index: 3 (Moderate)

Visibility: N/A


Pressure: 29.86 "Hg

Humidity: 33%

Dew point: 43 °F

Location of GanjaLocation

Historic Weather in Ganja

°F

Ganja temperature yesterday

Maximum temperature yesterday: 70 °F (at 2:30 PM)
Minimum temperature yesterday: 52 °F (at 5:00 AM)
Average temperature yesterday: 60 °F

Past Weeks' High & Low Weather Summary

 TemperatureHumidityPressure
High84 °F (Apr 19, 5:30 PM)94% (Apr 12, 4:00 AM)30.24 "Hg (Apr 12, 4:00 AM)
Low46 °F (Apr 10, 8:00 AM)28% (Apr 19, 6:30 PM)29.80 "Hg (Apr 9, 4:00 PM)
Average61 °F65%29.99 "Hg
* Reported Apr 9 4:00 PM — Apr 24 4:00 PM, Ganja, Weather by CustomWeather, © 2014

Note: Actual official high and low records may vary slightly from our data, if they occured in-between our weather recording intervals... More about our weather records

Advertising

Historic Weather Conditions — Data for Previous 24 hours

 ConditionsComfort  
Time TempWeatherWind HumidityBarometerVisibility
4:00 PM
Apr 24
73 °FScattered clouds.18 mph33%29.86 "HgN/A
3:30 PM73 °FScattered clouds.16 mph33%29.89 "HgN/A
3:00 PM73 °FPartly sunny.20 mph33%29.89 "HgN/A
2:30 PM70 °FPartly sunny.20 mph38%29.89 "HgN/A
2:00 PM70 °FScattered clouds.21 mph35%29.89 "HgN/A
1:30 PM70 °FScattered clouds.18 mph38%29.89 "HgN/A
1:00 PM68 °FScattered clouds.18 mph43%29.92 "HgN/A
12:30 PM68 °FScattered clouds.17 mph43%29.92 "HgN/A
11:30 AM64 °FPartly sunny.15 mph52%29.92 "HgN/A
11:00 AM63 °FPartly sunny.18 mph52%29.92 "HgN/A
10:30 AM63 °FPartly sunny.21 mph52%29.92 "HgN/A
10:00 AM63 °FPartly sunny.18 mph52%29.92 "HgN/A
9:30 AM61 °FScattered clouds.22 mph55%29.92 "HgN/A
9:00 AM59 °FPassing clouds.21 mph55%29.92 "HgN/A
8:30 AM55 °FPassing clouds.17 mph63%29.92 "HgN/A
8:00 AM55 °FPassing clouds.15 mph63%29.92 "HgN/A
7:30 AM55 °FPassing clouds.13 mph63%29.92 "HgN/A
7:00 AM54 °FPassing clouds.16 mph67%29.89 "HgN/A
6:30 AM54 °FPassing clouds.12 mph67%29.89 "HgN/A
6:00 AM54 °FPassing clouds.13 mph67%29.89 "HgN/A
5:30 AM52 °FPassing clouds.8 mph72%29.89 "HgN/A
5:00 AM54 °FPassing clouds.10 mph67%29.89 "HgN/A
4:30 AM54 °FPassing clouds.17 mph67%29.89 "HgN/A
4:00 AM54 °FPassing clouds.17 mph67%29.89 "HgN/A
3:30 AM55 °FPassing clouds.20 mph63%29.89 "HgN/A
3:00 AM55 °FPassing clouds.16 mph63%29.92 "HgN/A
2:30 AM55 °FPassing clouds.16 mph63%29.92 "HgN/A
2:00 AM55 °FPassing clouds.17 mph63%29.92 "HgN/A
1:30 AM55 °FPassing clouds.18 mph63%29.92 "HgN/A
1:00 AM55 °FPassing clouds.20 mph63%29.92 "HgN/A
12:30 AM55 °FPassing clouds.20 mph63%29.92 "HgN/A
12:00 AM55 °FPassing clouds.16 mph63%29.92 "HgN/A
11:30 PM
Apr 23
55 °FPassing clouds.15 mph63%29.92 "HgN/A
11:00 PM57 °FPassing clouds.17 mph59%29.92 "HgN/A
10:30 PM57 °FPartly sunny.16 mph59%29.95 "HgN/A
10:00 PM57 °FPartly sunny.18 mph59%29.92 "HgN/A
9:30 PM57 °FPartly sunny.18 mph63%29.92 "HgN/A
9:00 PM57 °FPartly sunny.16 mph67%29.92 "HgN/A
8:30 PM59 °FPartly sunny.18 mph63%29.92 "HgN/A
7:30 PM61 °FPartly sunny.12 mph63%29.89 "HgN/A
7:00 PM61 °FPartly sunny.13 mph68%29.89 "HgN/A
6:30 PM59 °FSprinkles. Broken clouds.17 mph72%29.92 "Hg4 mi
6:00 PM64 °FPartly sunny.29 mph52%29.89 "HgN/A
5:30 PM68 °FPartly sunny.24 mph43%29.89 "HgN/A
5:00 PM70 °FScattered clouds.21 mph40%29.86 "HgN/A
Weather by CustomWeather, © 2014

See weather overview